User: anonymous   Login
Location: Oshawa
(43.9000°N, 78.8670°W)
Time: 23:34:40
(UTC-04:00)
Language:

CZ-4C R/B - Orbit

View from above orbital plane
View from above orbital plane
View from above satellite
View from above satellite

Ground track
Ground track

The orbit data is extracted from the following two-line orbital elements,

1 32290U 07055B   16126.18751085  .00005098  00000-0  15381-3 0  9997
2 32290  97.5252 219.1035 0072505 143.5879 217.0326 15.32149314469299
Epoch (UTC): 05 May 2016 04:30:00
Eccentricity: 0.0072505
inclination: 97.5252°
perigee height: 420 km
apogee height: 519 km
right ascension of ascending node: 219.1035°
argument of perigee: 143.5879°
revolutions per day: 15.32149314
mean anomaly at epoch: 217.0326°
orbit number at epoch: 46929

The dashed part of the orbit path shows where the satellite is in the earth's shadow,  

DLR